• In Latvia
  • List of Countries
  • For 7 days
  • Water Temperature
  • Satellite Maps
  • Weather Map
  • Weather Widgets
  • user-avatar
    Login

    Hourly Weather Nagasaki

    Today, 19 September, Wednesday

    Time Temperature Precipitation Wind Pressure Humidity
    00:00 +26°C° 0 mm 3 mps 758 mmHg 76%
    01:00 +26°C° 0 mm 3 mps 758 mmHg 76%
    02:00 +25°C° 0 mm 3 mps 758 mmHg 76%
    03:00 +25°C° 0 mm 4 mps 758 mmHg 75%
    04:00 +25°C° 0 mm 3 mps 758 mmHg 74%
    05:00 +25°C° 0 mm 3 mps 758 mmHg 73%
    06:00 +25°C° 0 mm 3 mps 758 mmHg 73%
    07:00 +26°C° 0 mm 3 mps 758 mmHg 65%
    08:00 +28°C° 0 mm 3 mps 758 mmHg 57%
    09:00 +30°C° 0 mm 1 mps 758 mmHg 52%
    10:00 +31°C° 0 mm 1 mps 758 mmHg 47%
    11:00 +33°C° 0 mm 1 mps 758 mmHg 42%
    12:00 +34°C° 0 mm 1 mps 758 mmHg 36%
    13:00 +34°C° 0 mm 1 mps 757 mmHg 37%
    14:00 +34°C° 0 mm 1 mps 757 mmHg 38%
    15:00 +34°C° 0 mm 2 mps 757 mmHg 44%
    16:00 +32°C° 0 mm 2 mps 757 mmHg 50%
    17:00 +31°C° 0 mm 2 mps 757 mmHg 55%
    18:00 +30°C° 0 mm 2 mps 757 mmHg 60%
    19:00 +29°C° 0.7 mm 3 mps 757 mmHg 64%
    20:00 +29°C° 0.7 mm 3 mps 757 mmHg 68%
    21:00 +28°C° 0.7 mm 3 mps 757 mmHg 72%
    22:00 +28°C° 1.6 mm 4 mps 757 mmHg 76%
    23:00 +28°C° 1.6 mm 4 mps 756 mmHg 80%

    Tomorrow, 20 September, Thursday

    Time Temperature Precipitation Wind Pressure Humidity
    00:00 +27°C° 1.6 mm 5 mps 756 mmHg 84%
    01:00 +27°C° 2.1 mm 5 mps 756 mmHg 87%
    02:00 +27°C° 2.1 mm 6 mps 756 mmHg 90%
    03:00 +27°C° 2.1 mm 6 mps 755 mmHg 93%
    04:00 +27°C° 1.5 mm 6 mps 755 mmHg 93%
    05:00 +27°C° 1.5 mm 7 mps 755 mmHg 92%
    06:00 +27°C° 1.5 mm 7 mps 755 mmHg 92%
    07:00 +27°C° 1.1 mm 6 mps 755 mmHg 91%
    08:00 +27°C° 1.1 mm 6 mps 755 mmHg 90%
    09:00 +27°C° 1.1 mm 6 mps 755 mmHg 90%
    10:00 +28°C° 1.1 mm 6 mps 755 mmHg 85%
    11:00 +29°C° 1.1 mm 5 mps 755 mmHg 81%
    12:00 +30°C° 1.1 mm 5 mps 755 mmHg 76%
    13:00 +32°C° 1 mm 5 mps 755 mmHg 76%
    14:00 +32°C° 1 mm 5 mps 755 mmHg 76%
    15:00 +32°C° 1 mm 5 mps 754 mmHg 75%
    16:00 +30°C° 0.9 mm 5 mps 754 mmHg 77%
    17:00 +29°C° 0.9 mm 4 mps 755 mmHg 80%
    18:00 +29°C° 0.9 mm 4 mps 755 mmHg 82%
    19:00 +28°C° 0.9 mm 4 mps 755 mmHg 84%
    20:00 +28°C° 0.9 mm 4 mps 755 mmHg 85%
    21:00 +28°C° 0.9 mm 4 mps 755 mmHg 87%
    22:00 +28°C° 0.8 mm 4 mps 755 mmHg 88%
    23:00 +27°C° 0.8 mm 4 mps 755 mmHg 89%

    Day after tomorrow, 21 September, Friday

    Time Temperature Precipitation Wind Pressure Humidity
    00:00 +27°C° 0.8 mm 5 mps 755 mmHg 90%
    01:00 +27°C° 0.9 mm 5 mps 755 mmHg 90%
    02:00 +27°C° 0.9 mm 5 mps 755 mmHg 90%
    03:00 +27°C° 0.9 mm 5 mps 755 mmHg 91%
    04:00 +27°C° 0.8 mm 5 mps 754 mmHg 90%
    05:00 +27°C° 0.8 mm 6 mps 754 mmHg 90%
    06:00 +27°C° 0.8 mm 6 mps 754 mmHg 90%
    07:00 +28°C° 1.2 mm 7 mps 754 mmHg 87%
    08:00 +29°C° 1.2 mm 7 mps 755 mmHg 84%
    09:00 +30°C° 1.2 mm 7 mps 755 mmHg 80%
    10:00 +29°C° 2 mm 8 mps 755 mmHg 81%
    11:00 +29°C° 2 mm 8 mps 755 mmHg 83%
    12:00 +29°C° 2 mm 9 mps 754 mmHg 84%
    13:00 +29°C° 1.9 mm 9 mps 754 mmHg 85%
    14:00 +28°C° 1.9 mm 9 mps 754 mmHg 85%
    15:00 +28°C° 1.9 mm 10 mps 754 mmHg 85%
    16:00 +28°C° 1 mm 9 mps 754 mmHg 86%
    17:00 +28°C° 1 mm 8 mps 754 mmHg 87%
    18:00 +28°C° 1 mm 7 mps 754 mmHg 88%
    19:00 +28°C° 0.4 mm 7 mps 754 mmHg 90%
    20:00 +28°C° 0.4 mm 6 mps 755 mmHg 91%
    21:00 +27°C° 0.4 mm 6 mps 755 mmHg 92%
    22:00 +27°C° 0.1 mm 6 mps 755 mmHg 93%
    23:00 +27°C° 0.1 mm 6 mps 755 mmHg 93%

    22 September, Saturday

    Time Temperature Precipitation Wind Pressure Humidity
    00:00 +27°C° 0.1 mm 5 mps 755 mmHg 94%
    01:00 +27°C° 0.1 mm 5 mps 755 mmHg 94%
    02:00 +26°C° 0.1 mm 5 mps 755 mmHg 94%
    03:00 +26°C° 0.1 mm 5 mps 755 mmHg 94%
    04:00 +26°C° 0 mm 5 mps 756 mmHg 94%
    05:00 +26°C° 0 mm 5 mps 756 mmHg 94%
    06:00 +26°C° 0 mm 5 mps 756 mmHg 93%
    07:00 +26°C° 0 mm 5 mps 756 mmHg 88%
    08:00 +27°C° 0 mm 5 mps 757 mmHg 82%
    09:00 +28°C° 0 mm 5 mps 757 mmHg 77%
    10:00 +29°C° 0 mm 5 mps 757 mmHg 71%
    11:00 +30°C° 0 mm 5 mps 758 mmHg 65%
    12:00 +32°C° 0 mm 5 mps 758 mmHg 58%
    13:00 +32°C° 0 mm 5 mps 758 mmHg 56%
    14:00 +32°C° 0 mm 5 mps 757 mmHg 53%
    15:00 +32°C° 0 mm 5 mps 757 mmHg 50%
    16:00 +30°C° 0 mm 5 mps 757 mmHg 52%
    17:00 +29°C° 0 mm 5 mps 757 mmHg 54%
    18:00 +28°C° 0 mm 5 mps 757 mmHg 56%
    19:00 +27°C° 0 mm 5 mps 757 mmHg 57%
    20:00 +26°C° 0 mm 5 mps 758 mmHg 59%
    21:00 +26°C° 0 mm 4 mps 758 mmHg 60%
    22:00 +25°C° 0 mm 4 mps 758 mmHg 60%
    23:00 +25°C° 0 mm 4 mps 758 mmHg 60%

    23 September, Sunday

    Time Temperature Precipitation Wind Pressure Humidity
    00:00 +25°C° 0 mm 4 mps 758 mmHg 60%
    01:00 +25°C° 0 mm 4 mps 758 mmHg 60%
    02:00 +25°C° 0 mm 4 mps 758 mmHg 60%
    03:00 +25°C° 0 mm 4 mps 758 mmHg 59%
    04:00 +23°C° 0 mm 4 mps 758 mmHg 60%
    05:00 +23°C° 0 mm 4 mps 758 mmHg 61%
    06:00 +23°C° 0 mm 4 mps 758 mmHg 63%
    07:00 +25°C° 0 mm 4 mps 758 mmHg 61%
    08:00 +26°C° 0 mm 4 mps 759 mmHg 60%
    09:00 +26°C° 0 mm 4 mps 759 mmHg 59%
    10:00 +28°C° 0 mm 4 mps 759 mmHg 54%
    11:00 +29°C° 0 mm 3 mps 759 mmHg 49%
    12:00 +30°C° 0 mm 3 mps 759 mmHg 45%
    13:00 +29°C° 0 mm 3 mps 758 mmHg 47%
    14:00 +29°C° 0 mm 4 mps 758 mmHg 50%
    15:00 +28°C° 0 mm 4 mps 757 mmHg 53%
    16:00 +28°C° 0 mm 4 mps 758 mmHg 57%
    17:00 +27°C° 0 mm 4 mps 758 mmHg 61%
    18:00 +26°C° 0 mm 5 mps 758 mmHg 65%
    19:00 +26°C° 0 mm 5 mps 758 mmHg 68%
    20:00 +26°C° 0 mm 5 mps 759 mmHg 70%
    21:00 +25°C° 0 mm 5 mps 759 mmHg 73%
    22:00 +25°C° 0 mm 5 mps 759 mmHg 75%
    23:00 +24°C° 0 mm 6 mps 759 mmHg 77%

    24 September, Monday

    Time Temperature Precipitation Wind Pressure Humidity
    00:00 +24°C° 0 mm 6 mps 758 mmHg 79%
    01:00 +24°C° 0 mm 6 mps 758 mmHg 78%
    02:00 +23°C° 0 mm 6 mps 758 mmHg 77%
    03:00 +23°C° 0 mm 6 mps 758 mmHg 76%
    04:00 +23°C° 0.4 mm 6 mps 758 mmHg 76%
    05:00 +23°C° 0.4 mm 5 mps 758 mmHg 75%
    06:00 +23°C° 0.4 mm 5 mps 759 mmHg 75%
    07:00 +23°C° 0.3 mm 5 mps 759 mmHg 75%
    08:00 +23°C° 0.3 mm 4 mps 759 mmHg 74%
    09:00 +23°C° 0.3 mm 4 mps 759 mmHg 73%
    10:00 +26°C° 0 mm 4 mps 759 mmHg 64%
    11:00 +28°C° 0 mm 3 mps 759 mmHg 55%
    12:00 +30°C° 0 mm 3 mps 759 mmHg 46%
    13:00 +29°C° 0 mm 3 mps 758 mmHg 46%
    14:00 +29°C° 0 mm 3 mps 758 mmHg 46%
    15:00 +28°C° 0 mm 4 mps 758 mmHg 45%
    16:00 +27°C° 0 mm 4 mps 758 mmHg 50%
    17:00 +26°C° 0 mm 4 mps 758 mmHg 54%
    18:00 +23°C° 0 mm 4 mps 758 mmHg 58%
    19:00 +23°C° 0 mm 5 mps 759 mmHg 58%
    20:00 +23°C° 0 mm 5 mps 759 mmHg 58%
    21:00 +22°C° 0 mm 5 mps 759 mmHg 58%
    22:00 +22°C° 0 mm 5 mps 759 mmHg 60%
    23:00 +22°C° 0 mm 4 mps 759 mmHg 62%
    Show more